FW2524 Weather Reports


time (UTC)temp
C
wind
direction
speed
KPH
gust
KPH
rain 1hr
cm
rain 24hr
cm
rain mn
cm
humidity
%
barometer
mb
20260503184519 19 287 8.0 25.7 0.00 0.00 0.00 21 1020.0
20260503183017 19 259 3.2 17.7 0.00 0.00 0.00 23 1020.0
20260503181515 19 157 3.2 20.9 0.00 0.00 0.00 24 1020.3
20260503180012 18 230 6.4 12.9 0.00 0.00 0.00 24 1020.3
20260503174509 18 265 8.0 19.3 0.00 0.00 0.00 23 1020.5
20260503173009 18 232 1.6 12.9 0.00 0.00 0.00 23 1020.7
20260503171506 18 46 3.2 17.7 0.00 0.00 0.00 27 1021.0
20260503081540 4 240 0.0 0.0 0.00 0.00 0.00 65 1019.1
20260503071531 5 234 0.0 0.0 0.00 0.00 0.00 62 1018.4
20260503054520 6 234 0.0 3.2 0.00 0.00 0.00 60 1018.2
20260503053023 5 269 3.2 4.8 0.00 0.00 0.00 64 1018.1
20260503051517 5 272 0.0 0.0 0.00 0.00 0.00 64 1018.2
20260503050010 6 272 0.0 1.6 0.00 0.00 0.00 60 1018.1
20260503044507 6 272 0.0 0.0 0.00 0.00 0.00 58 1017.8
20260503043018 7 272 0.0 3.2 0.00 0.00 0.00 54 1017.7
20260503041503 8 272 0.0 0.0 0.00 0.00 0.00 52 1017.5
20260503040027 8 272 0.0 0.0 0.00 0.00 0.00 49 1017.3
20260503034524 9 272 0.0 0.0 0.00 0.00 0.00 47 1017.1
20260503033025 10 272 0.0 0.0 0.00 0.00 0.00 49 1017.0
20260503031515 11 272 0.0 0.0 0.00 0.00 0.00 43 1017.0
20260503030010 12 272 0.0 0.0 0.00 0.00 0.00 38 1016.9
20260503024520 12 272 1.6 6.4 0.00 0.00 0.00 34 1016.9
20260503023004 13 282 1.6 4.8 0.00 0.00 0.00 32 1016.8
20260503021602 13 311 1.6 4.8 0.00 0.00 0.00 32 1016.6
20260503020158 13 303 1.6 6.4 0.00 0.00 0.00 31 1016.4
20260503014557 13 317 4.8 12.9 0.00 0.00 0.00 30 1016.2
20260503013048 14 306 8.0 17.7 0.00 0.00 0.00 30 1015.9
20260503011546 14 5 4.8 8.0 0.00 0.00 0.00 32 1015.6
20260503010043 14 306 3.2 6.4 0.00 0.00 0.00 33 1015.2
20260503004553 15 343 0.0 6.4 0.00 0.00 0.00 33 1015.0
20260503003056 15 297 1.6 4.8 0.00 0.00 0.00 33 1014.9
20260503001535 15 355 1.6 8.0 0.00 0.00 0.00 38 1014.6
20260503000030 15 78 1.6 4.8 0.00 0.00 0.00 43 1014.4
20260502234526 15 318 1.6 14.5 0.00 0.00 0.00 45 1014.0
20260502233026 15 288 4.8 12.9 0.00 0.00 0.00 44 1013.7
20260502231554 15 355 0.0 0.0 0.00 0.00 0.00 48 1013.5
20260502230052 16 355 0.0 0.0 0.00 0.00 0.00 44 1013.2
20260502224532 16 355 0.0 0.0 0.00 0.00 0.00 44 1013.1
20260502223022 17 355 0.0 0.0 0.00 0.00 0.00 41 1013.1
20260502221517 18 355 0.0 4.8 0.00 0.00 0.00 36 1012.9
20260502220019 17 206 1.6 16.1 0.00 0.00 0.00 38 1012.8
20260502214513 17 165 1.6 6.4 0.00 0.00 0.00 38 1012.7
20260502213014 17 136 1.6 4.8 0.00 0.00 0.00 38 1012.8
20260502211512 17 300 0.0 8.0 0.00 0.00 0.00 37 1012.7
20260502210007 17 279 1.6 14.5 0.00 0.00 0.00 39 1012.9
20260502204506 17 308 3.2 14.5 0.00 0.00 0.00 37 1012.9
20260502203004 17 360 6.4 12.9 0.00 0.00 0.00 38 1013.0
20260502201557 17 67 3.2 14.5 0.00 0.00 0.00 38 1013.0
20260502200157 16 142 0.0 19.3 0.00 0.00 0.00 38 1013.1
20260502194606 16 41 11.3 17.7 0.00 0.00 0.00 37 1013.4
20260502193050 16 331 3.2 16.1 0.00 0.00 0.00 39 1013.6
20260502191517 16 350 1.6 9.7 0.00 0.00 0.00 39 1013.7
20260502190015 16 67 4.8 14.5 0.00 0.00 0.00 38 1013.8